Station,Latitude,Longitude,Time,UV-RAD Ozone column (DU),GUV Ozone column (DU),Brewer #050 Ozone column (DU)
Ny-Alesund,78.93,11.93,2008-05-08T12:00:00Z,389.1,,
Ny-Alesund,78.93,11.93,2008-05-09T12:00:00Z,392.9,,
Ny-Alesund,78.93,11.93,2008-05-10T12:00:00Z,412.7,,
Ny-Alesund,78.93,11.93,2008-05-11T12:00:00Z,405.7,,
Ny-Alesund,78.93,11.93,2008-05-12T12:00:00Z,380.7,,
Ny-Alesund,78.93,11.93,2008-05-13T12:00:00Z,391.2,,
Ny-Alesund,78.93,11.93,2008-05-14T12:00:00Z,381.3,,
Ny-Alesund,78.93,11.93,2008-05-15T12:00:00Z,393.6,,
Ny-Alesund,78.93,11.93,2008-05-16T12:00:00Z,386.2,,
Ny-Alesund,78.93,11.93,2008-05-17T12:00:00Z,380.2,,
Ny-Alesund,78.93,11.93,2008-05-18T12:00:00Z,377.3,,
Ny-Alesund,78.93,11.93,2008-05-19T12:00:00Z,383.6,,
Ny-Alesund,78.93,11.93,2008-05-20T12:00:00Z,364.8,,
Ny-Alesund,78.93,11.93,2008-05-21T12:00:00Z,377.0,,
Ny-Alesund,78.93,11.93,2008-05-22T12:00:00Z,363.9,,
Ny-Alesund,78.93,11.93,2008-05-23T12:00:00Z,382.6,,
Ny-Alesund,78.93,11.93,2008-05-24T12:00:00Z,404.7,,
Ny-Alesund,78.93,11.93,2008-05-25T12:00:00Z,383.1,,
Ny-Alesund,78.93,11.93,2008-05-26T12:00:00Z,399.6,,
Ny-Alesund,78.93,11.93,2008-05-27T12:00:00Z,393.3,,
Ny-Alesund,78.93,11.93,2008-05-28T12:00:00Z,371.0,,
Ny-Alesund,78.93,11.93,2008-05-29T12:00:00Z,363.3,,
Ny-Alesund,78.93,11.93,2008-05-30T12:00:00Z,364.7,,
Ny-Alesund,78.93,11.93,2008-05-31T12:00:00Z,352.7,,
Ny-Alesund,78.93,11.93,2008-06-01T12:00:00Z,347.8,,
Ny-Alesund,78.93,11.93,2008-06-02T12:00:00Z,297.6,,
Ny-Alesund,78.93,11.93,2008-06-03T12:00:00Z,351.4,,
Ny-Alesund,78.93,11.93,2008-06-04T12:00:00Z,383.1,,
Ny-Alesund,78.93,11.93,2008-06-09T12:00:00Z,345.3,,
Ny-Alesund,78.93,11.93,2008-06-10T12:00:00Z,336.8,,
Ny-Alesund,78.93,11.93,2008-06-11T12:00:00Z,378.6,,
Ny-Alesund,78.93,11.93,2008-06-12T12:00:00Z,359.6,,
Ny-Alesund,78.93,11.93,2008-06-13T12:00:00Z,368.0,,
Ny-Alesund,78.93,11.93,2008-06-14T12:00:00Z,384.4,,
Ny-Alesund,78.93,11.93,2008-06-15T12:00:00Z,362.4,,
Ny-Alesund,78.93,11.93,2008-06-16T12:00:00Z,368.3,,
Ny-Alesund,78.93,11.93,2008-06-17T12:00:00Z,378.5,,
Ny-Alesund,78.93,11.93,2008-06-18T12:00:00Z,370.5,,
Ny-Alesund,78.93,11.93,2008-06-19T12:00:00Z,355.3,,
Ny-Alesund,78.93,11.93,2008-06-20T12:00:00Z,351.4,,
Ny-Alesund,78.93,11.93,2008-06-21T12:00:00Z,352.1,,
Ny-Alesund,78.93,11.93,2008-06-22T12:00:00Z,321.7,,
Ny-Alesund,78.93,11.93,2008-06-23T12:00:00Z,343.8,,
Ny-Alesund,78.93,11.93,2008-06-24T12:00:00Z,360.8,,
Ny-Alesund,78.93,11.93,2008-06-25T12:00:00Z,361.8,,
Ny-Alesund,78.93,11.93,2008-06-26T12:00:00Z,359.0,,
Ny-Alesund,78.93,11.93,2008-06-27T12:00:00Z,349.4,,
Ny-Alesund,78.93,11.93,2008-07-04T12:00:00Z,343.9,,
Ny-Alesund,78.93,11.93,2008-07-05T12:00:00Z,333.6,,
Ny-Alesund,78.93,11.93,2008-07-06T12:00:00Z,328.0,,
Ny-Alesund,78.93,11.93,2008-07-07T12:00:00Z,322.5,,
Ny-Alesund,78.93,11.93,2008-07-09T12:00:00Z,294.3,,
Ny-Alesund,78.93,11.93,2008-07-10T12:00:00Z,366.5,,
Ny-Alesund,78.93,11.93,2008-07-11T12:00:00Z,351.6,,
Ny-Alesund,78.93,11.93,2008-07-13T12:00:00Z,339.8,,
Ny-Alesund,78.93,11.93,2008-07-14T12:00:00Z,344.5,,
Ny-Alesund,78.93,11.93,2008-07-15T12:00:00Z,348.2,,
Ny-Alesund,78.93,11.93,2008-07-16T12:00:00Z,335.3,,
Ny-Alesund,78.93,11.93,2008-07-17T12:00:00Z,342.9,,
Ny-Alesund,78.93,11.93,2008-07-18T12:00:00Z,350.7,,
Ny-Alesund,78.93,11.93,2008-07-19T12:00:00Z,326.4,,
Ny-Alesund,78.93,11.93,2008-07-20T12:00:00Z,338.7,,
Ny-Alesund,78.93,11.93,2008-07-21T12:00:00Z,333.2,,
Ny-Alesund,78.93,11.93,2008-07-22T12:00:00Z,337.5,,
Ny-Alesund,78.93,11.93,2008-07-23T12:00:00Z,314.8,,
Ny-Alesund,78.93,11.93,2008-07-24T12:00:00Z,325.9,,
Ny-Alesund,78.93,11.93,2008-07-25T12:00:00Z,342.5,,
Ny-Alesund,78.93,11.93,2008-07-26T12:00:00Z,327.2,,
Ny-Alesund,78.93,11.93,2008-07-27T12:00:00Z,330.2,,
Ny-Alesund,78.93,11.93,2008-07-28T12:00:00Z,319.3,,
Ny-Alesund,78.93,11.93,2008-07-29T12:00:00Z,354.1,,
Ny-Alesund,78.93,11.93,2008-07-31T12:00:00Z,320.0,,
Ny-Alesund,78.93,11.93,2008-08-01T12:00:00Z,349.7,,
Ny-Alesund,78.93,11.93,2008-08-02T12:00:00Z,303.8,,
Ny-Alesund,78.93,11.93,2008-08-03T12:00:00Z,288.8,,
Ny-Alesund,78.93,11.93,2008-08-04T12:00:00Z,314.4,,
Ny-Alesund,78.93,11.93,2008-08-05T12:00:00Z,326.7,,
Ny-Alesund,78.93,11.93,2008-08-06T12:00:00Z,319.5,,
Ny-Alesund,78.93,11.93,2008-08-07T12:00:00Z,330.6,,
Ny-Alesund,78.93,11.93,2008-08-08T12:00:00Z,317.7,,
Ny-Alesund,78.93,11.93,2008-08-10T12:00:00Z,337.2,,
Ny-Alesund,78.93,11.93,2008-08-11T12:00:00Z,239.6,,
Ny-Alesund,78.93,11.93,2008-08-12T12:00:00Z,363.5,,
Ny-Alesund,78.93,11.93,2008-08-13T12:00:00Z,384.6,,
Ny-Alesund,78.93,11.93,2008-08-14T12:00:00Z,354.2,,
Ny-Alesund,78.93,11.93,2008-08-15T12:00:00Z,354.6,,
Ny-Alesund,78.93,11.93,2008-08-16T12:00:00Z,372.3,,
Ny-Alesund,78.93,11.93,2008-08-17T12:00:00Z,339.4,,
Ny-Alesund,78.93,11.93,2008-08-18T12:00:00Z,343.2,,
Ny-Alesund,78.93,11.93,2008-08-21T12:00:00Z,343.5,,
Ny-Alesund,78.93,11.93,2008-08-22T12:00:00Z,357.5,,
Ny-Alesund,78.93,11.93,2008-08-26T12:00:00Z,294.7,,
Ny-Alesund,78.93,11.93,2008-08-24T12:00:00Z,341.1,,
Ny-Alesund,78.93,11.93,2008-08-25T12:00:00Z,328.3,,
Ny-Alesund,78.93,11.93,2008-08-26T12:00:00Z,294.7,,
Ny-Alesund,78.93,11.93,2008-08-27T12:00:00Z,320.1,,
Ny-Alesund,78.93,11.93,2008-08-29T12:00:00Z,352.3,,
Ny-Alesund,78.93,11.93,2009-06-01T12:00:00Z,394.4,,
Ny-Alesund,78.93,11.93,2009-06-02T12:00:00Z,389.6,,
Ny-Alesund,78.93,11.93,2009-06-03T12:00:00Z,370.1,,
Ny-Alesund,78.93,11.93,2009-06-04T12:00:00Z,369.0,,
Ny-Alesund,78.93,11.93,2009-06-05T12:00:00Z,369.0,,
Ny-Alesund,78.93,11.93,2009-06-06T12:00:00Z,365.3,,
Ny-Alesund,78.93,11.93,2009-06-07T12:00:00Z,363.1,,
Ny-Alesund,78.93,11.93,2009-06-08T12:00:00Z,384.2,,
Ny-Alesund,78.93,11.93,2009-06-09T12:00:00Z,396.3,,
Ny-Alesund,78.93,11.93,2009-06-10T12:00:00Z,386.2,,
Ny-Alesund,78.93,11.93,2009-06-11T12:00:00Z,373.1,,
Ny-Alesund,78.93,11.93,2009-06-12T12:00:00Z,354.8,,
Ny-Alesund,78.93,11.93,2009-06-13T12:00:00Z,358.1,,
Ny-Alesund,78.93,11.93,2009-06-14T12:00:00Z,361.8,,
Ny-Alesund,78.93,11.93,2009-06-15T12:00:00Z,371.6,,
Ny-Alesund,78.93,11.93,2009-06-16T12:00:00Z,384.0,,
Ny-Alesund,78.93,11.93,2009-06-17T12:00:00Z,348.3,,
Ny-Alesund,78.93,11.93,2009-06-18T12:00:00Z,350.0,,
Ny-Alesund,78.93,11.93,2009-06-19T12:00:00Z,336.4,,
Ny-Alesund,78.93,11.93,2009-06-20T12:00:00Z,351.9,,
Ny-Alesund,78.93,11.93,2009-06-21T12:00:00Z,361.5,,
Ny-Alesund,78.93,11.93,2009-06-22T12:00:00Z,352.6,,
Ny-Alesund,78.93,11.93,2009-06-23T12:00:00Z,340.5,,
Ny-Alesund,78.93,11.93,2009-06-24T12:00:00Z,356.4,,
Ny-Alesund,78.93,11.93,2009-06-25T12:00:00Z,369.0,,
Ny-Alesund,78.93,11.93,2009-06-26T12:00:00Z,353.9,,
Ny-Alesund,78.93,11.93,2009-06-27T12:00:00Z,352.4,,
Ny-Alesund,78.93,11.93,2009-06-28T12:00:00Z,345.6,,
Ny-Alesund,78.93,11.93,2009-06-29T12:00:00Z,323.2,,
Ny-Alesund,78.93,11.93,2009-06-30T12:00:00Z,354.9,,
Ny-Alesund,78.93,11.93,2009-07-01T12:00:00Z,356.4,,
Ny-Alesund,78.93,11.93,2009-07-02T12:00:00Z,339.2,,
Ny-Alesund,78.93,11.93,2009-07-03T12:00:00Z,335.5,,
Ny-Alesund,78.93,11.93,2009-07-04T12:00:00Z,337.8,,
Ny-Alesund,78.93,11.93,2009-07-05T12:00:00Z,332.6,,
Ny-Alesund,78.93,11.93,2009-07-06T12:00:00Z,330.8,,
Ny-Alesund,78.93,11.93,2009-07-07T12:00:00Z,327.0,,
Ny-Alesund,78.93,11.93,2009-07-08T12:00:00Z,369.1,,
Ny-Alesund,78.93,11.93,2009-07-09T12:00:00Z,342.7,,
Ny-Alesund,78.93,11.93,2009-07-10T12:00:00Z,348.5,,
Ny-Alesund,78.93,11.93,2009-07-11T12:00:00Z,355.5,,
Ny-Alesund,78.93,11.93,2009-07-12T12:00:00Z,351.3,,
Ny-Alesund,78.93,11.93,2009-07-13T12:00:00Z,349.0,,
Ny-Alesund,78.93,11.93,2009-07-14T12:00:00Z,364.0,,
Ny-Alesund,78.93,11.93,2009-07-15T12:00:00Z,341.3,,
Ny-Alesund,78.93,11.93,2009-07-16T12:00:00Z,331.5,,
Ny-Alesund,78.93,11.93,2009-07-17T12:00:00Z,318.0,,
Ny-Alesund,78.93,11.93,2009-07-18T12:00:00Z,321.3,,
Ny-Alesund,78.93,11.93,2009-07-19T12:00:00Z,342.1,,
Ny-Alesund,78.93,11.93,2009-07-20T12:00:00Z,343.8,,
Ny-Alesund,78.93,11.93,2009-07-21T12:00:00Z,344.6,,
Ny-Alesund,78.93,11.93,2009-07-22T12:00:00Z,358.2,,
Ny-Alesund,78.93,11.93,2009-07-23T12:00:00Z,340.6,,
Ny-Alesund,78.93,11.93,2009-07-24T12:00:00Z,321.2,,
Ny-Alesund,78.93,11.93,2009-07-25T12:00:00Z,327.3,,
Ny-Alesund,78.93,11.93,2009-07-28T12:00:00Z,317.3,,
Ny-Alesund,78.93,11.93,2009-07-29T12:00:00Z,306.3,,
Ny-Alesund,78.93,11.93,2009-08-01T12:00:00Z,313.5,,
Ny-Alesund,78.93,11.93,2009-08-02T12:00:00Z,311.6,,
Ny-Alesund,78.93,11.93,2009-08-04T12:00:00Z,307.9,,
Ny-Alesund,78.93,11.93,2009-08-05T12:00:00Z,302.7,,
Ny-Alesund,78.93,11.93,2009-08-06T12:00:00Z,291.7,,
Ny-Alesund,78.93,11.93,2009-08-07T12:00:00Z,300.4,,
Ny-Alesund,78.93,11.93,2009-08-09T12:00:00Z,295.2,,
Ny-Alesund,78.93,11.93,2009-08-10T12:00:00Z,292.5,,
Ny-Alesund,78.93,11.93,2009-08-11T12:00:00Z,290.0,,
Ny-Alesund,78.93,11.93,2009-08-12T12:00:00Z,295.6,,
Ny-Alesund,78.93,11.93,2009-08-13T12:00:00Z,298.4,,
Ny-Alesund,78.93,11.93,2009-08-14T12:00:00Z,309.6,,
Ny-Alesund,78.93,11.93,2009-08-15T12:00:00Z,302.1,,
Ny-Alesund,78.93,11.93,2009-08-16T12:00:00Z,305.8,,
Ny-Alesund,78.93,11.93,2009-08-17T12:00:00Z,315.3,,
Ny-Alesund,78.93,11.93,2009-08-18T12:00:00Z,302.5,,
Ny-Alesund,78.93,11.93,2009-08-19T12:00:00Z,311.2,,
Ny-Alesund,78.93,11.93,2009-08-20T12:00:00Z,296.1,,
Ny-Alesund,78.93,11.93,2009-08-21T12:00:00Z,300.2,,
Ny-Alesund,78.93,11.93,2009-08-23T12:00:00Z,295.7,,
Ny-Alesund,78.93,11.93,2009-08-24T12:00:00Z,300.0,,
Ny-Alesund,78.93,11.93,2009-08-25T12:00:00Z,311.9,,
Ny-Alesund,78.93,11.93,2009-08-26T12:00:00Z,308.1,,
Ny-Alesund,78.93,11.93,2009-08-27T12:00:00Z,292.5,,
Ny-Alesund,78.93,11.93,2009-08-28T12:00:00Z,315.9,,
Ny-Alesund,78.93,11.93,2009-08-29T12:00:00Z,324.9,,
Ny-Alesund,78.93,11.93,2009-08-30T12:00:00Z,304.7,,
Ny-Alesund,78.93,11.93,2009-08-31T12:00:00Z,300.8,,
Ny-Alesund,78.93,11.93,2009-09-01T12:00:00Z,319.1,,
Ny-Alesund,78.93,11.93,2009-09-02T12:00:00Z,327.3,,
Ny-Alesund,78.93,11.93,2009-09-03T12:00:00Z,325.6,,
Ny-Alesund,78.93,11.93,2009-09-04T12:00:00Z,302.7,,
Ny-Alesund,78.93,11.93,2009-09-05T12:00:00Z,283.3,,
Ny-Alesund,78.93,11.93,2009-09-06T12:00:00Z,300.3,,
Ny-Alesund,78.93,11.93,2009-09-07T12:00:00Z,326.4,,
Ny-Alesund,78.93,11.93,2009-09-08T12:00:00Z,323.3,,
Ny-Alesund,78.93,11.93,2009-09-09T12:00:00Z,323.8,,
Ny-Alesund,78.93,11.93,2009-09-10T12:00:00Z,306.9,,
Ny-Alesund,78.93,11.93,2009-09-11T12:00:00Z,308.8,,
Ny-Alesund,78.93,11.93,2009-09-12T12:00:00Z,294.9,,
Ny-Alesund,78.93,11.93,2009-09-13T12:00:00Z,286.8,,
Ny-Alesund,78.93,11.93,2009-09-14T12:00:00Z,271.6,,
Ny-Alesund,78.93,11.93,2009-09-15T12:00:00Z,270.6,,
Ny-Alesund,78.93,11.93,2009-09-16T12:00:00Z,299.4,,
Ny-Alesund,78.93,11.93,2009-09-17T12:00:00Z,288.9,,
Ny-Alesund,78.93,11.93,2009-09-18T12:00:00Z,292.1,,
Ny-Alesund,78.93,11.93,2009-09-19T12:00:00Z,257.0,,
Ny-Alesund,78.93,11.93,2009-09-20T12:00:00Z,277.3,,
Ny-Alesund,78.93,11.93,2009-09-27T12:00:00Z,281.2,,
Ny-Alesund,78.93,11.93,2009-09-28T12:00:00Z,315.5,,
Ny-Alesund,78.93,11.93,2009-09-29T12:00:00Z,299.5,,
Ny-Alesund,78.93,11.93,2009-09-30T12:00:00Z,294.8,,
Ny-Alesund,78.93,11.93,2009-10-01T12:00:00Z,281.9,,
Ny-Alesund,78.93,11.93,2009-10-02T12:00:00Z,288.3,,
Ny-Alesund,78.93,11.93,2009-10-03T12:00:00Z,298.1,,
Ny-Alesund,78.93,11.93,2009-10-04T12:00:00Z,286.0,,
Ny-Alesund,78.93,11.93,2009-10-05T12:00:00Z,269.3,,
Ny-Alesund,78.93,11.93,2009-10-07T12:00:00Z,296.2,,
Ny-Alesund,78.93,11.93,2009-10-08T12:00:00Z,313.6,,
Ny-Alesund,78.93,11.93,2009-10-09T12:00:00Z,298.2,,
Ny-Alesund,78.93,11.93,2009-10-10T12:00:00Z,283.7,,
Ny-Alesund,78.93,11.93,2009-10-11T12:00:00Z,271.2,,
Ny-Alesund,78.93,11.93,2009-10-12T12:00:00Z,269.9,,
Ny-Alesund,78.93,11.93,2009-10-13T12:00:00Z,265.9,,
Ny-Alesund,78.93,11.93,2009-10-15T12:00:00Z,264.0,,
Ny-Alesund,78.93,11.93,2009-10-16T12:00:00Z,304.0,,
Ny-Alesund,78.93,11.93,2010-04-01T12:00:00Z,401.0,,
Ny-Alesund,78.93,11.93,2010-04-02T12:00:00Z,385.5,,
Ny-Alesund,78.93,11.93,2010-04-03T12:00:00Z,357.1,,
Ny-Alesund,78.93,11.93,2010-04-04T12:00:00Z,359.4,,
Ny-Alesund,78.93,11.93,2010-04-05T12:00:00Z,361.7,,
Ny-Alesund,78.93,11.93,2010-04-06T12:00:00Z,355.4,,
Ny-Alesund,78.93,11.93,2010-04-07T12:00:00Z,334.3,,
Ny-Alesund,78.93,11.93,2010-04-08T12:00:00Z,343.1,,
Ny-Alesund,78.93,11.93,2010-04-09T12:00:00Z,350.6,,
Ny-Alesund,78.93,11.93,2010-04-10T12:00:00Z,363.3,,
Ny-Alesund,78.93,11.93,2010-04-11T12:00:00Z,351.5,,
Ny-Alesund,78.93,11.93,2010-04-12T12:00:00Z,360.7,,
Ny-Alesund,78.93,11.93,2010-04-13T12:00:00Z,388.8,,
Ny-Alesund,78.93,11.93,2010-04-14T12:00:00Z,385.9,,
Ny-Alesund,78.93,11.93,2010-04-15T12:00:00Z,387.2,,
Ny-Alesund,78.93,11.93,2010-04-16T12:00:00Z,392.5,,
Ny-Alesund,78.93,11.93,2010-04-17T12:00:00Z,398.0,,
Ny-Alesund,78.93,11.93,2010-04-18T12:00:00Z,398.7,,
Ny-Alesund,78.93,11.93,2010-04-19T12:00:00Z,401.5,,
Ny-Alesund,78.93,11.93,2010-04-20T12:00:00Z,391.1,,
Ny-Alesund,78.93,11.93,2010-04-21T12:00:00Z,388.8,,
Ny-Alesund,78.93,11.93,2010-04-22T12:00:00Z,390.7,,
Ny-Alesund,78.93,11.93,2010-04-23T12:00:00Z,387.2,,
Ny-Alesund,78.93,11.93,2010-04-24T12:00:00Z,381.5,,
Ny-Alesund,78.93,11.93,2010-04-25T12:00:00Z,382.7,,
Ny-Alesund,78.93,11.93,2010-04-26T12:00:00Z,376.8,,
Ny-Alesund,78.93,11.93,2010-04-27T12:00:00Z,398.3,,
Ny-Alesund,78.93,11.93,2010-04-28T12:00:00Z,377.9,,
Ny-Alesund,78.93,11.93,2010-04-29T12:00:00Z,411.1,,
Ny-Alesund,78.93,11.93,2010-04-30T12:00:00Z,419.3,,
Ny-Alesund,78.93,11.93,2010-05-01T12:00:00Z,423.3,,
Ny-Alesund,78.93,11.93,2010-05-02T12:00:00Z,407.5,,
Ny-Alesund,78.93,11.93,2010-05-03T12:00:00Z,386.6,,
Ny-Alesund,78.93,11.93,2010-05-04T12:00:00Z,393.9,,
Ny-Alesund,78.93,11.93,2010-05-05T12:00:00Z,408.9,,
Ny-Alesund,78.93,11.93,2010-05-06T12:00:00Z,421.2,,
Ny-Alesund,78.93,11.93,2010-05-07T12:00:00Z,427.7,,
Ny-Alesund,78.93,11.93,2010-05-08T12:00:00Z,427.9,,
Ny-Alesund,78.93,11.93,2010-05-09T12:00:00Z,435.0,,
Ny-Alesund,78.93,11.93,2010-05-10T12:00:00Z,438.6,,
Ny-Alesund,78.93,11.93,2010-05-11T12:00:00Z,449.2,,
Ny-Alesund,78.93,11.93,2010-05-12T12:00:00Z,448.2,,
Ny-Alesund,78.93,11.93,2010-05-13T12:00:00Z,440.2,,
Ny-Alesund,78.93,11.93,2010-05-14T12:00:00Z,422.6,,
Ny-Alesund,78.93,11.93,2010-05-15T12:00:00Z,415.3,,
Ny-Alesund,78.93,11.93,2010-05-16T12:00:00Z,390.5,,
Ny-Alesund,78.93,11.93,2010-05-17T12:00:00Z,386.1,,
Ny-Alesund,78.93,11.93,2010-05-18T12:00:00Z,384.7,,
Ny-Alesund,78.93,11.93,2010-05-19T12:00:00Z,417.3,,
Ny-Alesund,78.93,11.93,2010-05-20T12:00:00Z,382.9,,
Ny-Alesund,78.93,11.93,2010-05-21T12:00:00Z,385.0,,
Ny-Alesund,78.93,11.93,2010-05-22T12:00:00Z,398.9,,
Ny-Alesund,78.93,11.93,2010-05-23T12:00:00Z,409.0,,
Ny-Alesund,78.93,11.93,2010-05-24T12:00:00Z,424.6,,
Ny-Alesund,78.93,11.93,2010-05-25T12:00:00Z,410.9,,
Ny-Alesund,78.93,11.93,2010-05-26T12:00:00Z,383.5,,
Ny-Alesund,78.93,11.93,2010-05-27T12:00:00Z,377.3,,
Ny-Alesund,78.93,11.93,2010-05-28T12:00:00Z,368.2,,
Ny-Alesund,78.93,11.93,2010-05-29T12:00:00Z,377.4,,
Ny-Alesund,78.93,11.93,2010-05-30T12:00:00Z,394.4,,
Ny-Alesund,78.93,11.93,2010-05-31T12:00:00Z,413.3,,
Ny-Alesund,78.93,11.93,2010-06-01T12:00:00Z,418.6,,
Ny-Alesund,78.93,11.93,2010-06-02T12:00:00Z,414.8,,
Ny-Alesund,78.93,11.93,2010-06-03T12:00:00Z,411.7,,
Ny-Alesund,78.93,11.93,2010-06-04T12:00:00Z,408.5,,
Ny-Alesund,78.93,11.93,2010-06-05T12:00:00Z,403.1,,
Ny-Alesund,78.93,11.93,2010-06-06T12:00:00Z,397.2,,
Ny-Alesund,78.93,11.93,2010-06-07T12:00:00Z,413.0,,
Ny-Alesund,78.93,11.93,2010-06-08T12:00:00Z,413.0,,
Ny-Alesund,78.93,11.93,2010-06-09T12:00:00Z,404.9,,
Ny-Alesund,78.93,11.93,2010-06-10T12:00:00Z,410.1,,
Ny-Alesund,78.93,11.93,2010-06-11T12:00:00Z,394.6,,
Ny-Alesund,78.93,11.93,2010-06-12T12:00:00Z,398.5,,
Ny-Alesund,78.93,11.93,2010-06-13T12:00:00Z,396.4,,
Ny-Alesund,78.93,11.93,2010-06-14T12:00:00Z,399.8,,
Ny-Alesund,78.93,11.93,2010-06-15T12:00:00Z,395.5,,
Ny-Alesund,78.93,11.93,2010-06-16T12:00:00Z,396.4,,
Ny-Alesund,78.93,11.93,2010-06-17T12:00:00Z,402.0,,
Ny-Alesund,78.93,11.93,2010-06-18T12:00:00Z,409.8,,
Ny-Alesund,78.93,11.93,2010-06-19T12:00:00Z,376.7,,
Ny-Alesund,78.93,11.93,2010-06-20T12:00:00Z,384.2,,
Ny-Alesund,78.93,11.93,2010-06-21T12:00:00Z,373.5,,
Ny-Alesund,78.93,11.93,2010-06-22T12:00:00Z,392.1,,
Ny-Alesund,78.93,11.93,2010-06-23T12:00:00Z,371.9,,
Ny-Alesund,78.93,11.93,2010-06-24T12:00:00Z,358.8,,
Ny-Alesund,78.93,11.93,2010-06-25T12:00:00Z,382.7,,
Ny-Alesund,78.93,11.93,2010-06-26T12:00:00Z,382.2,,
Ny-Alesund,78.93,11.93,2010-06-27T12:00:00Z,375.4,,
Ny-Alesund,78.93,11.93,2010-06-28T12:00:00Z,366.5,,
Ny-Alesund,78.93,11.93,2010-06-29T12:00:00Z,366.3,,
Ny-Alesund,78.93,11.93,2010-06-30T12:00:00Z,365.8,,
Ny-Alesund,78.93,11.93,2010-07-02T12:00:00Z,375.1,,
Ny-Alesund,78.93,11.93,2010-07-03T12:00:00Z,354.3,,
Ny-Alesund,78.93,11.93,2010-07-04T12:00:00Z,357.9,,
Ny-Alesund,78.93,11.93,2010-07-05T12:00:00Z,362.1,,
Ny-Alesund,78.93,11.93,2010-07-06T12:00:00Z,364.8,,
Ny-Alesund,78.93,11.93,2010-07-07T12:00:00Z,367.2,,
Ny-Alesund,78.93,11.93,2010-07-08T12:00:00Z,362.8,,
Ny-Alesund,78.93,11.93,2010-07-09T12:00:00Z,373.5,,
Ny-Alesund,78.93,11.93,2010-07-10T12:00:00Z,381.6,,
Ny-Alesund,78.93,11.93,2010-07-12T12:00:00Z,392.7,,
Ny-Alesund,78.93,11.93,2010-07-13T12:00:00Z,370.1,,
Ny-Alesund,78.93,11.93,2010-07-14T12:00:00Z,365.5,,
Ny-Alesund,78.93,11.93,2010-07-15T12:00:00Z,380.7,,
Ny-Alesund,78.93,11.93,2010-07-16T12:00:00Z,375.7,,
Ny-Alesund,78.93,11.93,2010-07-17T12:00:00Z,368.6,,
Ny-Alesund,78.93,11.93,2010-07-18T12:00:00Z,365.2,,
Ny-Alesund,78.93,11.93,2010-07-19T12:00:00Z,367.1,,
Ny-Alesund,78.93,11.93,2010-07-20T12:00:00Z,358.2,,
Ny-Alesund,78.93,11.93,2010-07-21T12:00:00Z,347.8,,
Ny-Alesund,78.93,11.93,2010-07-22T12:00:00Z,341.0,,
Ny-Alesund,78.93,11.93,2010-07-23T12:00:00Z,377.6,,
Ny-Alesund,78.93,11.93,2010-07-24T12:00:00Z,358.4,,
Ny-Alesund,78.93,11.93,2010-07-25T12:00:00Z,341.1,,
Ny-Alesund,78.93,11.93,2010-07-26T12:00:00Z,344.0,,
Ny-Alesund,78.93,11.93,2010-07-27T12:00:00Z,332.7,,
Ny-Alesund,78.93,11.93,2010-07-28T12:00:00Z,351.2,,
Ny-Alesund,78.93,11.93,2010-07-29T12:00:00Z,333.4,,
Ny-Alesund,78.93,11.93,2010-07-30T12:00:00Z,335.3,,
Ny-Alesund,78.93,11.93,2010-07-31T12:00:00Z,352.1,,
Ny-Alesund,78.93,11.93,2010-08-01T12:00:00Z,359.0,,
Ny-Alesund,78.93,11.93,2010-08-02T12:00:00Z,352.6,,
Ny-Alesund,78.93,11.93,2010-08-03T12:00:00Z,345.7,,
Ny-Alesund,78.93,11.93,2010-08-04T12:00:00Z,342.7,,
Ny-Alesund,78.93,11.93,2010-08-05T12:00:00Z,337.4,,
Ny-Alesund,78.93,11.93,2010-08-06T12:00:00Z,324.5,,
Ny-Alesund,78.93,11.93,2010-08-07T12:00:00Z,326.7,,
Ny-Alesund,78.93,11.93,2010-08-08T12:00:00Z,346.0,,
Ny-Alesund,78.93,11.93,2010-08-09T12:00:00Z,347.3,,
Ny-Alesund,78.93,11.93,2010-08-10T12:00:00Z,361.1,,
Ny-Alesund,78.93,11.93,2010-08-11T12:00:00Z,351.3,,
Ny-Alesund,78.93,11.93,2010-08-13T12:00:00Z,349.1,,
Ny-Alesund,78.93,11.93,2010-08-14T12:00:00Z,354.3,,
Ny-Alesund,78.93,11.93,2010-08-15T12:00:00Z,352.0,,
Ny-Alesund,78.93,11.93,2010-08-16T12:00:00Z,331.0,,
Ny-Alesund,78.93,11.93,2010-08-17T12:00:00Z,329.2,,
Ny-Alesund,78.93,11.93,2010-08-18T12:00:00Z,315.3,,
Ny-Alesund,78.93,11.93,2010-08-19T12:00:00Z,310.2,,
Ny-Alesund,78.93,11.93,2010-08-20T12:00:00Z,293.5,,
Ny-Alesund,78.93,11.93,2010-08-21T12:00:00Z,306.5,,
Ny-Alesund,78.93,11.93,2010-08-22T12:00:00Z,303.9,,
Ny-Alesund,78.93,11.93,2010-08-23T12:00:00Z,309.3,,
Ny-Alesund,78.93,11.93,2010-08-24T12:00:00Z,311.3,,
Ny-Alesund,78.93,11.93,2010-08-25T12:00:00Z,308.3,,
Ny-Alesund,78.93,11.93,2010-08-26T12:00:00Z,309.4,,
Ny-Alesund,78.93,11.93,2010-08-28T12:00:00Z,318.7,,
Ny-Alesund,78.93,11.93,2010-08-29T12:00:00Z,308.6,,
Ny-Alesund,78.93,11.93,2010-08-30T12:00:00Z,300.4,,
Ny-Alesund,78.93,11.93,2010-08-31T12:00:00Z,316.3,,
Ny-Alesund,78.93,11.93,2010-09-01T12:00:00Z,307.7,,
Ny-Alesund,78.93,11.93,2010-09-02T12:00:00Z,290.2,,
Ny-Alesund,78.93,11.93,2010-09-03T12:00:00Z,321.2,,
Ny-Alesund,78.93,11.93,2010-09-04T12:00:00Z,312.2,,
Ny-Alesund,78.93,11.93,2010-09-05T12:00:00Z,264.0,,
Ny-Alesund,78.93,11.93,2010-09-06T12:00:00Z,269.0,,
Ny-Alesund,78.93,11.93,2010-09-07T12:00:00Z,298.0,,
Ny-Alesund,78.93,11.93,2010-09-08T12:00:00Z,286.1,,
Ny-Alesund,78.93,11.93,2010-09-09T12:00:00Z,288.4,,
Ny-Alesund,78.93,11.93,2010-09-10T12:00:00Z,289.1,,
Ny-Alesund,78.93,11.93,2010-09-11T12:00:00Z,312.5,,
Ny-Alesund,78.93,11.93,2010-09-12T12:00:00Z,293.3,,
Ny-Alesund,78.93,11.93,2010-09-13T12:00:00Z,282.9,,
Ny-Alesund,78.93,11.93,2010-09-14T12:00:00Z,310.8,,
Ny-Alesund,78.93,11.93,2010-09-15T12:00:00Z,314.7,,
Ny-Alesund,78.93,11.93,2010-09-16T12:00:00Z,338.3,,
Ny-Alesund,78.93,11.93,2010-09-17T12:00:00Z,306.0,,
Ny-Alesund,78.93,11.93,2010-09-18T12:00:00Z,309.2,,
Ny-Alesund,78.93,11.93,2010-09-19T12:00:00Z,323.4,,
Ny-Alesund,78.93,11.93,2010-09-20T12:00:00Z,310.6,,
Ny-Alesund,78.93,11.93,2010-09-22T12:00:00Z,294.8,,
Ny-Alesund,78.93,11.93,2010-09-23T12:00:00Z,300.5,,
Ny-Alesund,78.93,11.93,2010-09-24T12:00:00Z,309.6,,
Ny-Alesund,78.93,11.93,2010-09-25T12:00:00Z,293.9,,
Ny-Alesund,78.93,11.93,2010-09-26T12:00:00Z,271.2,,
Ny-Alesund,78.93,11.93,2010-09-27T12:00:00Z,276.3,,
Ny-Alesund,78.93,11.93,2010-09-28T12:00:00Z,254.5,,
Ny-Alesund,78.93,11.93,2010-09-29T12:00:00Z,257.5,,
Ny-Alesund,78.93,11.93,2010-09-30T12:00:00Z,266.1,,
Ny-Alesund,78.93,11.93,2010-10-02T12:00:00Z,280.8,,
Ny-Alesund,78.93,11.93,2010-10-04T12:00:00Z,282.8,,
Ny-Alesund,78.93,11.93,2010-10-06T12:00:00Z,279.6,,
Ny-Alesund,78.93,11.93,2010-10-11T12:00:00Z,282.5,,
Ny-Alesund,78.93,11.93,2010-10-12T12:00:00Z,275.9,,
Ny-Alesund,78.93,11.93,2010-10-13T12:00:00Z,270.4,,
Ny-Alesund,78.93,11.93,2010-10-14T12:00:00Z,262.6,,
Ny-Alesund,78.93,11.93,2010-10-15T12:00:00Z,256.6,,
Ny-Alesund,78.93,11.93,2011-03-27T12:00:00Z,279.9,,
Ny-Alesund,78.93,11.93,2011-03-28T12:00:00Z,259.9,,
Ny-Alesund,78.93,11.93,2011-03-29T12:00:00Z,270.9,,
Ny-Alesund,78.93,11.93,2011-03-30T12:00:00Z,279.7,,
Ny-Alesund,78.93,11.93,2011-03-31T12:00:00Z,265.2,,
Ny-Alesund,78.93,11.93,2011-04-01T12:00:00Z,255.5,,
Ny-Alesund,78.93,11.93,2011-04-02T12:00:00Z,260.5,,
Ny-Alesund,78.93,11.93,2011-04-03T12:00:00Z,263.3,,
Ny-Alesund,78.93,11.93,2011-04-04T12:00:00Z,332.9,,
Ny-Alesund,78.93,11.93,2011-04-05T12:00:00Z,320.3,,
Ny-Alesund,78.93,11.93,2011-04-06T12:00:00Z,339.9,,
Ny-Alesund,78.93,11.93,2011-04-08T12:00:00Z,359.7,,
Ny-Alesund,78.93,11.93,2011-04-09T12:00:00Z,383.6,,
Ny-Alesund,78.93,11.93,2011-04-10T12:00:00Z,391.8,,
Ny-Alesund,78.93,11.93,2011-04-16T12:00:00Z,464.4,,
Ny-Alesund,78.93,11.93,2011-04-17T12:00:00Z,446.7,,
Ny-Alesund,78.93,11.93,2011-04-18T12:00:00Z,426.3,,
Ny-Alesund,78.93,11.93,2011-04-19T12:00:00Z,403.4,,
Ny-Alesund,78.93,11.93,2011-04-20T12:00:00Z,435.8,,
Ny-Alesund,78.93,11.93,2011-04-21T12:00:00Z,417.4,,
Ny-Alesund,78.93,11.93,2011-04-22T12:00:00Z,440.2,,
Ny-Alesund,78.93,11.93,2011-04-23T12:00:00Z,403.4,,
Ny-Alesund,78.93,11.93,2011-04-24T12:00:00Z,376.1,,
Ny-Alesund,78.93,11.93,2011-04-25T12:00:00Z,417.7,,
Ny-Alesund,78.93,11.93,2011-04-26T12:00:00Z,418.6,,
Ny-Alesund,78.93,11.93,2011-04-27T12:00:00Z,414.2,,
Ny-Alesund,78.93,11.93,2011-04-28T12:00:00Z,402.5,,
Ny-Alesund,78.93,11.93,2011-04-29T12:00:00Z,398.7,,
Ny-Alesund,78.93,11.93,2011-05-01T12:00:00Z,375.2,,
Ny-Alesund,78.93,11.93,2011-05-02T12:00:00Z,392.5,,
Ny-Alesund,78.93,11.93,2011-05-03T12:00:00Z,424.3,,
Ny-Alesund,78.93,11.93,2011-05-04T12:00:00Z,420.0,,
Ny-Alesund,78.93,11.93,2011-05-13T12:00:00Z,375.9,,
Ny-Alesund,78.93,11.93,2011-05-14T12:00:00Z,384.3,,
Ny-Alesund,78.93,11.93,2011-05-15T12:00:00Z,381.6,,
Ny-Alesund,78.93,11.93,2011-05-16T12:00:00Z,398.2,,
Ny-Alesund,78.93,11.93,2011-05-17T12:00:00Z,382.4,,
Ny-Alesund,78.93,11.93,2011-05-18T12:00:00Z,408.3,,
Ny-Alesund,78.93,11.93,2011-05-19T12:00:00Z,405.0,,
Ny-Alesund,78.93,11.93,2011-05-20T12:00:00Z,404.5,,
Ny-Alesund,78.93,11.93,2011-05-21T12:00:00Z,412.4,,
Ny-Alesund,78.93,11.93,2011-05-22T12:00:00Z,398.5,,
Ny-Alesund,78.93,11.93,2011-05-23T12:00:00Z,383.9,,
Ny-Alesund,78.93,11.93,2011-05-24T12:00:00Z,380.3,,